Satellite-Ground Cal/Val Region Overpasses Predictions

Prediction of Satellite NPP Overpassing Cal/Val Region: PacNW

Region Location: (Latitude: 10.00, Longitude: 139.50) to (Latitude: 22.70, Longitude: 165.60).

Table of predicted overpasses for the next 14.0 days since TLE Epoch: 9/13/2019
Interval Starting Time Starting Location Ending Time Ending Location
1 09/14/2019 02:33:21 ( 10.01, 161.46) 09/14/2019 02:36:57 ( 22.69, 158.44)
2 09/14/2019 15:05:15 ( 22.65, 158.69) 09/14/2019 15:08:50 ( 10.03, 155.68)
3 09/15/2019 02:15:06 ( 12.74, 165.59) 09/15/2019 02:17:55 ( 22.66, 163.20)
4 09/15/2019 03:55:50 ( 10.04, 140.83) 09/15/2019 03:57:27 ( 15.74, 139.51)
5 09/15/2019 14:46:13 ( 22.68, 163.45) 09/15/2019 14:49:49 ( 10.00, 160.44)
6 09/16/2019 03:36:47 ( 10.01, 145.60) 09/16/2019 03:40:23 ( 22.69, 142.58)
7 09/16/2019 14:30:17 ( 11.74, 165.59) 09/16/2019 14:30:46 ( 10.04, 165.20)
8 09/16/2019 16:08:41 ( 22.65, 142.83) 09/16/2019 16:12:16 ( 10.03, 139.83)
9 09/17/2019 03:17:46 ( 10.04, 150.35) 09/17/2019 03:21:21 ( 22.66, 147.35)
10 09/17/2019 15:49:39 ( 22.68, 147.60) 09/17/2019 15:53:15 ( 10.00, 144.58)
11 09/18/2019 02:58:43 ( 10.00, 155.12) 09/18/2019 03:02:19 ( 22.69, 152.10)
12 09/18/2019 15:30:37 ( 22.66, 152.35) 09/18/2019 15:34:12 ( 10.04, 149.35)
13 09/19/2019 02:39:42 ( 10.03, 159.87) 09/19/2019 02:43:17 ( 22.65, 156.87)
14 09/19/2019 15:11:35 ( 22.69, 157.12) 09/19/2019 15:15:11 ( 10.01, 154.10)
15 09/20/2019 02:20:40 ( 10.06, 164.63) 09/20/2019 02:24:15 ( 22.68, 161.62)
16 09/20/2019 14:52:33 ( 22.66, 161.87) 09/20/2019 14:56:08 ( 10.05, 158.87)
17 09/21/2019 03:43:08 ( 10.03, 144.02) 09/21/2019 03:46:43 ( 22.65, 141.01)
18 09/21/2019 14:34:44 ( 18.42, 165.59) 09/21/2019 14:37:07 ( 10.02, 163.62)
19 09/21/2019 16:15:01 ( 22.69, 141.26) 09/21/2019 16:17:04 ( 15.48, 139.51)
20 09/22/2019 03:24:07 ( 10.06, 148.77) 09/22/2019 03:27:42 ( 22.68, 145.76)
21 09/22/2019 15:55:59 ( 22.67, 146.02) 09/22/2019 15:59:34 ( 10.05, 143.01)
22 09/23/2019 03:05:04 ( 10.03, 153.54) 09/23/2019 03:08:39 ( 22.65, 150.53)
23 09/23/2019 15:36:57 ( 22.70, 150.78) 09/23/2019 15:40:33 ( 10.02, 147.76)
24 09/24/2019 02:46:03 ( 10.05, 158.29) 09/24/2019 02:49:38 ( 22.68, 155.28)
25 09/24/2019 15:17:55 ( 22.67, 155.53) 09/24/2019 15:21:30 ( 10.05, 152.53)
26 09/25/2019 02:27:00 ( 10.02, 163.05) 09/25/2019 02:30:35 ( 22.65, 160.05)
27 09/25/2019 14:58:54 ( 22.64, 160.29) 09/25/2019 15:02:29 ( 10.03, 157.28)
28 09/26/2019 02:10:39 ( 19.45, 165.60) 09/26/2019 02:11:34 ( 22.67, 164.80)
29 09/26/2019 03:49:29 ( 10.06, 142.43) 09/26/2019 03:52:58 ( 22.33, 139.51)
30 09/26/2019 14:39:51 ( 22.68, 165.05) 09/26/2019 14:43:26 ( 10.06, 162.05)
31 09/26/2019 16:21:21 ( 22.67, 139.68) 09/26/2019 16:21:33 ( 21.97, 139.50)
32 09/27/2019 03:30:26 ( 10.03, 147.20) 09/27/2019 03:34:01 ( 22.65, 144.19)


NCC Satellite Cal/Val Overpasses Prediction Service
